Wind_Speed
21 20 17 17 18 14 4 2 7 6 9 11 6 5 11 12 9 4 6 2 2 3 5 6 7 7 6 5 3 4 4 4 4 5 5 5 6 6 7 7 6 5 5 4 4 3 4 4 5
24 22 20 19 21 15 13 13 6 6 12 11 10 12 10 14 15 8 7 6 3 3 3 4 6 7 8 7 7 6 7 5 5 6 6 6 7 8 9 9 8 8 7 7 6 6 6 7 7
24 23 22 21 22 15 6 9 16 6 16 14 17 16 12 13 13 9 8 10 7 5 6 6 6 6 9 9 13 12 7 7 7 7 8 7 8 9 10 10 9 9 9 8 8 7 8 9 10
25 24 23 23 25 18 15 15 18 15 18 19 19 18 10 13 14 14 16 14 14 11 12 11 10 9 9 13 12 12 9 8 7 7 8 8 8 9 10 11 11 10 10 10 10 10 10 11 12
27 27 26 23 25 30 26 21 17 21 23 22 22 19 10 12 12 12 13 17 18 16 16 15 14 12 11 9 8 8 10 9 9 9 10 11 11 11 11 12 12 12 11 12 12 13 14 15 16
28 29 27 24 24 26 34 33 32 27 27 26 15 18 23 23 23 18 17 16 20 20 19 19 18 15 14 13 12 10 10 10 11 11 11 12 13 13 13 14 13 14 14 16 17 17 17 16 16
30 30 27 26 25 31 35 39 37 33 32 30 30 31 30 28 26 24 20 20 22 22 25 23 21 21 20 18 19 18 17 15 14 13 13 13 14 14 13 15 15 15 16 17 17 18 19 19 19
31 30 26 26 28 33 36 39 41 39 38 35 34 33 34 34 31 30 26 24 23 24 25 27 26 25 24 24 25 25 23 21 19 19 18 19 21 21 20 17 18 18 18 19 19 20 20 20 19
32 29 25 26 29 37 42 41 38 40 41 41 33 24 30 31 30 25 31 29 29 27 26 26 28 27 26 27 29 30 28 26 25 26 24 23 23 24 23 23 23 23 23 22 23 23 22 22 21
31 28 24 25 31 34 36 36 38 36 37 39 36 38 39 36 35 29 25 35 32 30 28 28 26 29 28 28 30 32 31 30 30 29 27 26 27 28 28 27 25 25 25 25 24 24 23 23 22
33 28 31 26 31 35 34 34 34 35 38 38 38 37 41 39 38 37 29 35 40 35 33 32 29 29 30 31 30 31 32 32 31 31 31 31 31 31 30 30 29 28 28 27 27 26 25 24 23
32 29 31 27 32 33 32 32 33 37 34 39 43 38 40 43 41 43 35 35 46 44 41 39 36 35 33 34 36 36 36 36 35 35 34 32 33 33 32 33 32 32 31 30 30 30 28 27 27
32 33 32 27 32 35 36 37 39 36 40 43 44 43 42 43 44 43 45 35 43 50 46 46 43 41 40 41 41 41 42 42 42 41 40 38 37 37 37 36 35 35 34 33 33 33 32 30 30
28 30 32 36 38 39 38 39 42 39 41 43 45 45 44 43 44 45 46 45 39 47 52 48 49 50 48 48 48 47 47 48 47 46 45 46 45 43 42 41 40 38 38 38 37 37 36 33 32
32 33 34 36 39 40 42 39 42 43 46 45 44 46 46 47 47 49 49 48 48 48 52 53 52 54 52 50 53 52 50 48 48 51 52 52 52 52 50 48 46 42 41 40 40 40 40 38 37
31 32 34 36 38 40 41 42 42 44 45 47 46 48 49 49 50 50 52 53 52 50 54 57 57 58 60 60 57 55 55 56 54 52 53 55 58 60 58 56 54 49 46 44 44 42 43 42 40
29 30 32 33 36 39 42 43 43 41 43 44 44 46 49 52 53 51 50 53 54 55 53 56 59 61 62 63 63 62 60 61 59 58 56 57 59 60 69 62 60 56 55 51 49 48 46 45 44
28 30 31 31 34 39 39 40 41 42 45 45 46 47 48 49 51 54 54 52 54 56 57 58 59 61 63 64 63 60 62 64 65 66 67 65 64 64 57 56 61 60 60 60 57 55 52 49 45
28 30 31 32 32 34 34 35 33 36 40 43 45 46 49 53 52 54 55 53 50 51 53 55 54 57 61 62 63 61 60 61 62 67 69 70 70 69 66 67 62 67 61 63 68 63 59 53 51
28 30 28 25 26 30 30 27 34 37 39 42 44 46 50 54 55 54 48 43 42 44 47 47 48 50 54 58 59 61 63 63 63 68 70 71 71 73 73 70 64 64 58 54 61 70 68 59 59
25 26 22 20 20 23 26 23 32 33 34 32 35 39 42 47 49 48 42 36 37 41 41 42 42 43 45 47 50 53 55 56 57 63 70 70 74 75 76 74 71 68 61 57 58 66 55 63 64
23 23 21 20 21 19 26 21 26 29 31 31 31 32 36 41 45 43 36 29 30 35 36 32 34 33 35 37 41 45 47 46 48 52 56 62 63 67 76 77 78 73 64 64 66 71 68 47 52
20 22 20 21 22 22 27 27 27 26 27 27 26 29 37 38 42 44 40 29 35 39 32 33 36 37 39 42 44 46 48 48 48 51 53 58 61 62 60 65 74 70 65 54 57 73 89 76 71
23 23 24 24 24 28 30 31 27 29 31 26 27 28 29 40 42 46 39 42 39 46 47 46 48 50 49 50 47 44 43 46 46 46 47 50 53 57 60 58 58 67 72 72 62 69 74 80 72
25 25 26 29 30 31 33 34 31 33 32 29 28 29 26 30 38 44 48 44 47 45 47 53 53 55 57 53 50 46 42 42 43 43 44 47 48 50 51 54 56 55 64 71 75 72 54 59 46
25 29 30 33 33 33 34 36 37 36 34 32 33 34 34 33 35 41 48 45 44 46 50 51 47 44 41 50 51 51 51 44 41 44 45 45 45 47 47 49 50 48 50 58 75 81 80 72 69
31 36 38 39 41 40 39 42 40 38 35 36 39 34 37 36 38 42 47 50 51 53 57 53 50 48 52 48 48 53 49 46 41 41 44 45 48 48 46 50 50 47 48 47 50 56 65 72 74
35 37 38 40 45 47 44 44 45 39 33 39 42 41 42 37 39 42 46 51 55 55 50 48 56 60 58 56 51 50 50 50 50 45 46 46 45 49 51 50 55 51 49 47 48 43 50 47 49
36 40 42 45 48 50 52 51 46 41 35 43 48 50 45 42 44 44 45 50 54 56 55 59 61 57 58 58 51 51 52 53 54 54 47 50 49 45 48 53 52 53 52 49 44 40 41 42 47
38 39 41 44 46 52 54 57 46 43 42 45 50 51 48 46 47 51 52 51 51 51 53 52 50 51 54 54 52 54 55 52 47 44 42 46 52 46 45 48 52 52 52 48 45 40 38 37 40
Wind_Direction
194 191 185 168 152 115 169 239 66 253 178 176 260 265 255 281 280 291 331 336 305 24 356 330 318 319 319 287 260 259 258 259 273 281 293 300 297 283 281 283 283 277 276 290 311 330 326 332 349
199 196 188 170 156 160 211 205 80 208 274 263 254 248 243 258 271 275 279 286 319 355 330 310 328 320 307 297 288 271 268 252 263 278 285 292 294 290 293 291 288 288 286 288 295 307 313 320 333
203 201 198 180 166 177 190 225 228 281 280 285 287 273 258 236 255 277 281 282 266 268 275 261 275 297 303 292 300 282 264 271 264 271 277 280 280 280 284 283 283 284 284 287 292 295 298 305 314
206 209 205 190 183 187 210 215 221 241 264 262 270 280 284 256 266 286 284 277 274 263 267 272 276 259 279 294 281 271 267 266 268 273 281 282 281 281 286 289 286 285 288 293 296 303 308 310 309
213 214 213 196 193 204 215 218 220 235 256 257 262 261 229 243 261 266 270 281 278 277 272 271 271 258 256 283 278 283 285 283 278 284 290 295 290 285 284 287 289 287 288 290 294 297 299 300 301
221 219 217 209 199 209 219 227 228 230 248 260 245 241 245 245 264 261 269 269 276 276 273 269 265 257 254 248 256 266 288 297 305 292 291 294 293 289 289 288 286 288 291 293 296 301 303 304 304
227 225 219 219 212 223 224 230 234 236 238 253 256 260 267 277 271 268 252 257 264 268 275 268 263 260 252 245 248 257 273 277 273 282 284 284 290 286 285 287 287 287 290 294 299 304 305 307 307
229 229 226 225 222 233 242 234 238 245 250 251 257 270 279 273 273 275 268 264 260 262 262 270 269 263 257 251 248 250 262 266 256 266 272 277 280 281 282 281 285 286 286 290 294 297 301 303 305
229 227 223 226 227 231 240 248 244 248 252 258 261 268 282 283 274 282 279 270 264 255 257 262 265 262 264 263 259 258 259 261 260 265 268 267 270 275 277 277 279 283 285 286 289 293 296 303 307
235 235 234 235 236 237 243 248 258 260 262 265 270 274 275 273 271 269 272 277 266 260 259 259 259 261 265 259 260 263 265 264 265 266 265 266 269 271 273 276 277 279 282 286 287 288 293 297 304
241 239 245 242 246 248 251 255 257 259 264 266 259 260 269 273 274 274 274 272 275 267 263 262 258 244 262 270 264 262 264 266 266 268 267 267 269 270 270 272 277 275 278 281 283 285 288 293 295
245 243 242 249 256 260 263 264 263 262 263 266 268 266 267 275 274 275 268 264 272 270 269 266 261 260 254 256 262 261 262 264 264 262 262 262 262 265 268 270 273 275 274 275 278 281 285 286 289
260 255 260 262 263 260 258 261 260 260 262 265 268 268 270 271 273 273 273 263 264 272 269 269 267 264 262 263 259 257 261 262 261 263 263 261 259 259 260 262 265 268 270 271 272 274 277 280 283
260 254 252 253 256 261 265 266 271 271 267 268 269 270 271 270 270 271 272 271 263 265 271 268 269 269 266 264 262 261 257 256 261 257 260 261 261 260 259 259 258 260 262 264 266 270 273 275 278
253 250 251 253 255 257 260 264 266 268 271 273 272 274 274 273 272 272 272 271 270 269 270 272 270 269 266 264 265 266 263 258 255 258 260 258 258 258 253 254 254 255 256 258 262 265 269 271 273
253 258 262 265 267 268 268 272 274 274 273 272 272 270 269 269 271 270 271 271 271 268 269 271 272 272 272 271 265 260 262 263 261 254 251 256 259 258 255 253 252 250 253 253 254 258 262 266 267
265 266 266 268 267 269 268 270 270 270 271 270 270 271 273 274 273 272 271 270 270 271 269 268 269 269 270 270 271 271 268 266 264 262 259 255 254 258 256 259 254 252 251 249 251 252 255 258 263
263 262 265 265 269 268 269 271 273 273 270 271 274 273 271 269 268 270 271 270 268 268 268 268 268 268 267 267 266 265 265 266 266 265 264 261 257 256 257 256 257 257 254 255 251 251 253 255 258
265 267 266 267 266 268 274 279 286 285 282 279 278 277 275 273 274 272 270 269 267 266 266 266 266 267 266 265 265 265 263 259 258 260 259 259 260 261 256 253 252 260 252 259 254 251 248 251 253
259 260 263 267 276 280 280 285 282 286 286 280 277 273 273 274 272 271 273 272 269 268 268 268 266 264 263 264 263 262 260 258 256 255 257 258 257 258 258 258 255 249 258 254 241 256 249 245 248
264 267 274 273 265 274 280 301 301 302 299 297 289 284 281 277 274 273 274 280 275 270 270 269 268 263 261 261 262 262 261 259 258 258 258 255 256 256 256 256 255 253 251 247 262 258 248 242 245
273 279 277 277 282 295 297 307 306 319 324 328 319 301 294 294 292 288 275 265 277 283 279 273 270 267 266 267 269 267 264 263 260 256 255 257 258 257 256 255 255 252 253 255 252 253 265 264 262
270 271 272 277 282 287 294 301 302 308 310 318 331 305 297 297 294 290 293 278 286 283 264 282 280 277 278 277 272 267 265 263 260 260 257 256 256 255 257 256 254 257 252 252 250 249 258 254 255
272 275 273 278 279 287 293 296 300 303 303 307 315 322 306 288 289 277 264 294 286 285 258 268 286 282 282 279 268 266 268 270 266 263 261 259 256 258 256 257 258 256 256 252 246 254 253 246 258
281 283 282 281 283 288 294 293 296 298 298 302 303 303 310 303 289 285 289 289 290 281 275 283 283 284 282 277 269 269 267 268 270 267 263 262 259 258 255 255 256 258 251 246 236 250 258 246 262
288 288 287 286 285 285 290 290 296 294 297 299 296 301 306 305 303 295 289 286 276 271 278 285 270 264 276 275 276 273 274 269 265 266 264 260 260 258 256 255 255 258 258 256 251 261 261 253 254
289 290 291 291 290 289 292 294 295 296 294 294 293 295 293 293 298 294 286 283 284 284 281 279 272 269 279 280 269 266 267 270 271 270 268 263 258 256 254 250 250 254 259 262 258 259 258 254 255
284 285 285 286 286 288 289 289 289 291 293 287 286 283 285 291 291 294 292 283 277 279 273 270 274 274 276 278 274 272 272 272 271 268 266 266 262 258 253 247 246 250 253 261 263 268 255 262 261
282 286 286 283 286 290 287 285 289 292 291 286 282 282 288 292 292 292 287 282 278 278 276 272 274 274 274 275 276 273 274 274 272 271 261 259 259 256 256 250 247 247 250 255 259 263 265 267 267
282 283 282 284 284 283 284 284 288 293 286 281 279 281 285 288 289 288 290 295 290 279 273 272 271 270 270 275 277 277 277 273 270 270 267 257 255 253 250 250 247 246 247 251 256 257 263 268 267
Height
5907 5910 5913 5917 5923 5920 5917 5917 5917 5918 5920 5922 5924 5928 5930 5931 5931 5934 5929 5929 5928 5927 5928 5930 5931 5931 5932 5932 5932 5932 5932 5932 5932 5932 5932 5931 5931 5931 5931 5930 5930 5929 5929 5928 5927 5926 5925 5924 5923
5905 5909 5913 5915 5920 5917 5913 5914 5915 5918 5918 5921 5921 5925 5929 5929 5928 5931 5928 5928 5927 5927 5929 5929 5930 5931 5932 5932 5932 5932 5932 5932 5932 5932 5932 5932 5931 5931 5931 5931 5930 5930 5929 5928 5927 5926 5925 5924 5924
5903 5906 5911 5915 5917 5915 5912 5913 5913 5913 5912 5913 5916 5920 5925 5927 5928 5929 5929 5927 5928 5928 5929 5929 5928 5929 5930 5931 5932 5931 5931 5931 5931 5931 5931 5931 5931 5931 5931 5930 5930 5929 5929 5928 5927 5926 5925 5924 5924
5901 5904 5909 5912 5915 5915 5910 5908 5909 5908 5909 5912 5913 5917 5921 5923 5926 5928 5928 5927 5925 5927 5927 5927 5928 5928 5929 5929 5930 5930 5930 5930 5930 5930 5931 5931 5931 5931 5930 5930 5930 5929 5929 5928 5927 5926 5925 5924 5922
5898 5901 5904 5909 5912 5910 5909 5907 5907 5906 5905 5908 5910 5914 5917 5917 5919 5923 5925 5924 5923 5924 5924 5925 5926 5927 5927 5928 5928 5929 5929 5929 5929 5929 5930 5930 5930 5930 5929 5929 5929 5928 5928 5927 5926 5925 5924 5922 5921
5895 5898 5902 5906 5909 5908 5904 5905 5904 5905 5903 5905 5909 5910 5912 5914 5915 5921 5922 5922 5921 5920 5920 5921 5922 5924 5925 5925 5926 5926 5927 5927 5927 5927 5928 5928 5928 5928 5927 5927 5927 5927 5927 5926 5925 5923 5921 5920 5919
5891 5894 5899 5902 5906 5901 5898 5901 5900 5902 5902 5902 5903 5903 5906 5908 5911 5910 5917 5918 5918 5917 5916 5917 5918 5919 5921 5922 5923 5924 5924 5925 5925 5925 5925 5925 5925 5926 5925 5925 5925 5925 5924 5924 5923 5922 5920 5919 5917
5886 5890 5894 5898 5901 5898 5894 5895 5897 5901 5901 5902 5900 5901 5901 5902 5905 5907 5910 5913 5914 5914 5914 5912 5914 5915 5917 5917 5918 5919 5920 5921 5921 5921 5922 5922 5922 5923 5922 5922 5922 5922 5921 5921 5920 5920 5918 5916 5915
5882 5886 5890 5893 5895 5891 5889 5890 5895 5896 5898 5900 5900 5897 5899 5900 5901 5904 5901 5903 5904 5908 5911 5911 5910 5910 5913 5914 5914 5915 5916 5917 5917 5918 5918 5918 5918 5918 5918 5918 5917 5917 5917 5916 5916 5916 5915 5913 5912
5878 5883 5886 5886 5886 5887 5888 5890 5892 5895 5895 5895 5897 5895 5891 5893 5894 5900 5901 5894 5897 5900 5903 5905 5906 5905 5906 5908 5909 5910 5911 5911 5912 5913 5913 5913 5913 5914 5914 5914 5913 5913 5912 5912 5912 5911 5911 5910 5908
5875 5880 5879 5881 5881 5882 5885 5886 5887 5888 5887 5888 5891 5891 5886 5886 5887 5889 5896 5889 5887 5892 5894 5897 5899 5901 5901 5900 5902 5903 5904 5905 5906 5906 5907 5907 5908 5909 5909 5909 5908 5908 5907 5907 5907 5906 5906 5904 5903
5870 5874 5874 5876 5874 5878 5879 5879 5880 5879 5884 5881 5877 5882 5881 5878 5880 5879 5887 5887 5876 5882 5885 5888 5891 5893 5896 5896 5894 5895 5896 5897 5898 5899 5901 5902 5903 5903 5903 5903 5902 5902 5902 5901 5901 5901 5901 5900 5899
5866 5868 5870 5873 5870 5870 5871 5870 5869 5873 5870 5870 5871 5870 5872 5871 5870 5872 5870 5878 5873 5867 5874 5876 5880 5883 5885 5885 5887 5887 5888 5888 5889 5891 5892 5893 5894 5894 5894 5894 5894 5894 5894 5895 5895 5894 5894 5895 5894
5859 5862 5863 5862 5861 5861 5862 5862 5860 5861 5861 5861 5861 5861 5861 5862 5862 5862 5862 5862 5866 5863 5860 5867 5867 5869 5873 5875 5876 5876 5878 5879 5881 5882 5884 5884 5884 5885 5885 5885 5886 5885 5886 5886 5887 5887 5887 5887 5887
5850 5853 5854 5854 5853 5853 5853 5857 5854 5854 5852 5853 5853 5850 5849 5850 5852 5851 5852 5853 5853 5853 5852 5852 5856 5857 5861 5865 5864 5864 5866 5868 5870 5871 5872 5873 5872 5871 5871 5873 5874 5876 5875 5877 5878 5879 5879 5880 5879
5845 5846 5846 5845 5845 5846 5846 5846 5846 5843 5841 5840 5842 5841 5840 5839 5839 5841 5841 5841 5841 5842 5842 5840 5841 5843 5844 5845 5850 5855 5855 5855 5857 5856 5858 5858 5858 5857 5857 5860 5863 5865 5865 5866 5867 5868 5869 5870 5870
5839 5839 5839 5837 5836 5835 5835 5836 5836 5834 5830 5829 5828 5828 5828 5826 5826 5829 5829 5828 5828 5829 5830 5830 5829 5829 5830 5830 5830 5834 5839 5841 5842 5844 5844 5846 5844 5842 5846 5848 5852 5853 5854 5855 5857 5856 5858 5859 5860
5830 5831 5831 5831 5828 5827 5828 5827 5824 5821 5820 5820 5817 5814 5815 5816 5816 5817 5817 5816 5815 5815 5815 5817 5817 5817 5817 5817 5819 5822 5822 5823 5824 5826 5825 5826 5828 5830 5835 5828 5836 5841 5843 5845 5845 5847 5846 5848 5849
5824 5823 5824 5822 5821 5821 5818 5818 5815 5812 5809 5806 5807 5805 5800 5801 5802 5803 5803 5803 5803 5803 5804 5804 5804 5803 5803 5803 5803 5806 5810 5812 5810 5807 5808 5809 5808 5813 5816 5821 5823 5825 5828 5833 5839 5836 5832 5836 5838
5819 5818 5818 5816 5813 5810 5810 5811 5804 5801 5797 5795 5795 5792 5790 5789 5789 5789 5790 5791 5790 5790 5789 5789 5789 5789 5789 5788 5788 5787 5789 5793 5795 5793 5792 5790 5791 5794 5797 5801 5807 5809 5814 5817 5820 5814 5810 5819 5826
5811 5809 5809 5809 5808 5804 5803 5803 5796 5792 5787 5788 5784 5783 5782 5779 5779 5777 5776 5776 5775 5774 5777 5777 5777 5775 5775 5774 5773 5772 5775 5777 5779 5778 5777 5777 5774 5775 5778 5783 5788 5794 5800 5807 5807 5797 5760 5795 5804
5803 5802 5802 5800 5797 5796 5792 5796 5788 5782 5775 5774 5773 5772 5769 5767 5766 5766 5767 5764 5764 5764 5764 5764 5763 5762 5762 5761 5761 5761 5761 5764 5765 5765 5763 5761 5759 5760 5762 5764 5765 5773 5783 5791 5794 5788 5773 5776 5784
5798 5796 5795 5793 5790 5790 5786 5786 5784 5780 5773 5770 5772 5769 5764 5761 5757 5754 5754 5758 5757 5757 5754 5753 5752 5752 5752 5751 5751 5749 5749 5750 5750 5749 5749 5748 5746 5747 5748 5749 5751 5754 5766 5761 5770 5773 5771 5772 5775
5789 5789 5788 5786 5784 5781 5779 5778 5779 5772 5767 5766 5764 5759 5759 5755 5751 5747 5745 5746 5745 5745 5743 5741 5740 5739 5739 5739 5739 5738 5737 5736 5736 5736 5735 5734 5734 5735 5737 5736 5738 5740 5742 5751 5754 5755 5752 5760 5763
5782 5782 5781 5779 5777 5775 5770 5766 5767 5763 5759 5758 5756 5752 5750 5745 5742 5740 5736 5734 5732 5728 5726 5725 5725 5726 5724 5722 5723 5724 5725 5723 5722 5722 5722 5722 5722 5722 5724 5727 5726 5727 5729 5733 5736 5735 5739 5751 5732
5776 5773 5772 5769 5768 5767 5763 5757 5757 5753 5750 5746 5744 5740 5735 5733 5732 5729 5724 5723 5721 5717 5713 5711 5710 5711 5710 5709 5708 5709 5709 5710 5709 5709 5709 5710 5710 5710 5712 5714 5715 5716 5716 5719 5722 5722 5726 5734 5737
5768 5764 5761 5758 5756 5753 5752 5746 5744 5744 5741 5737 5732 5731 5727 5723 5720 5717 5715 5711 5706 5701 5698 5698 5697 5696 5696 5696 5696 5696 5696 5696 5696 5695 5695 5696 5697 5699 5701 5703 5705 5706 5706 5708 5710 5712 5711 5714 5719
5758 5756 5754 5749 5744 5741 5741 5738 5734 5735 5735 5728 5722 5719 5717 5716 5713 5708 5704 5701 5697 5692 5687 5687 5685 5684 5684 5683 5682 5682 5681 5681 5680 5681 5681 5682 5684 5685 5688 5691 5693 5696 5696 5697 5698 5697 5700 5701 5702
5751 5746 5743 5739 5735 5730 5726 5726 5726 5726 5723 5716 5710 5706 5704 5702 5699 5696 5691 5685 5679 5676 5675 5674 5671 5670 5668 5666 5668 5667 5665 5664 5664 5663 5665 5666 5668 5670 5673 5676 5680 5684 5685 5687 5687 5688 5690 5689 5692
5741 5739 5734 5729 5727 5717 5711 5709 5715 5714 5710 5704 5696 5694 5694 5690 5685 5678 5675 5672 5666 5662 5660 5659 5657 5655 5653 5652 5651 5650 5649 5648 5647 5647 5649 5650 5650 5654 5657 5660 5666 5670 5674 5678 5679 5681 5681 5681 5681